Regional Weather Roundup
Issued by NWS

Home | Current Version | Previous Version | Text Only | Print | Product List | Glossary On
Versions: 1 2 3 4 5 6 7 8 9 10 11 12 13 14 15 16 17 18 19 20 21 22 23 24 25 26 27 28 29 30 31 32 33 34 35 36 37 38 39 40 41 42 43 44 45 46 47 48 49 50
000
ASUS42 KKEY 192110
RWRKEY

FLORIDA REGIONAL WEATHER ROUNDUP FOR THE FLORIDA KEYS
NATIONAL WEATHER SERVICE KEY WEST FLORIDA
500 PM EDT SUN APR 19 2015

...SOUTH FLORIDA AND THE KEYS...

CITY           SKY/WX    TMP DP  RH WIND       PRES   REMARKS
FORT MYERS     MOSUNNY   86  69  56 SW14G24   29.87F HX  90
SW REGIONAL AP MOSUNNY   86  69  56 SW18      29.88F HX  90
NAPLES         PTSUNNY   85  72  65 S12       29.89F HX  91
MIAMI          PTSUNNY   87  70  56 S13       29.90F HX  92
WEST KENDALL   MOSUNNY   89  68  49 S10       29.90F HX  93
HOMESTEAD      SUNNY     86  70  58 S12       29.90F HX  91
MARATHON       MOSUNNY   85  76  74 S6        29.91F HX  94
BOCA CHICA NAS PTSUNNY   84  73  69 SE7       29.89F HX  90
KEY WEST INTL  PTSUNNY   83  74  74 S6        29.90F

...INTERNATIONAL WEATHER...

CITY           SKY/WX    TMP DP  RH WIND       PRES   REMARKS
NASSAU BAHAMAS PTSUNNY   86  73  66 S12       29.95R HX  93
CANCUN MEXICO  PTSUNNY   84  73  70 SE21      29.85F HX  91
COZUMEL MEXICO PTSUNNY   81  73  78 SE14      29.86F

ADJACENT COASTAL WATERS...

STATION/POSITION TIME  SKY/WX   TEMP    WIND        PRES    WAVE
                                AIR SEA DIR/SP/G            HT/PER
                 (UTC)          (F)     (DEG/KT/KT) (MB)    (FT/S)
PULASKI SHOAL LI 2000            81     180/  6/  7 1012.4F
SAND KEY         2050            80     140/  5/  5 1012.5F
SOMBRERO KEY     2100            82     150/  7/  7 1013.3F
LONG KEY         2100            81 86  170/  5/  6 1013.6F
MOLASSES REEF    2100            80 80  180/ 10/ 11 1012.9F
FOWEY ROCKS      NOT AVBL

$$



USA.gov is the U.S. government's official web portal to all federal, state and local government web resources and services.